sat.trackr.live / text

‹ back to catalog

KUIPER-00145

NORAD 65767 · 2025-217F

PAYLOAD ACTIVE UNKNOWN

§ Identity

Operator
Country
US
Launch date
2025-09-25
Launch site
AFETR
Launch vehicle
Mass (kg)
RCS (m²)

External: N2YO · Heavens-Above · Gunter

§ Orbital elements

Epoch: 2026-05-25T04:47:58.113024Z

Period
97.30 min
Inclination
51.9001°
Eccentricity
0.0000767
Mean motion
14.79935293 rev/d
Perigee alt
629.0 km
Apogee alt
630.1 km
Semi-major
7,007.7 km
B*
8.8857e-5
RAAN
59.7747°
Arg perigee
95.1031°
Mean anomaly
265.0019°
Rev number
3,627

§ Raw data

KUIPER-001451 65767U 25217F   26145.19997816  .00000456  00000+0  88857-4 0  99902 65767  51.9001  59.7747 0000767  95.1031 265.0019 14.79935293 36270

JSON: /api/v1/satellites/65767 · /tle

For live sub-satellite position, see the globe view (requires WebGL).

§ Visibility from observer

Set your observer location to see the next 7 days of passes ≥ 10°. The values pass through the URL so the page stays shareable.

No JS? Fill the form by hand. The geolocation button needs JavaScript.